[[{"header":{"parameterUnit":"m.s-1","parameterCategory":1,"la1":30.2991,"la2":30.254,"lo1":-89.0895,"lo2":-89.0444,"dy":0.0017,"dx":0.0017,"nx":28,"ny":28,"refTime":"2025-04-12T09:00:00:Z","depth":0,"parameterNumber":2,"parameterNumberName":"U-component_of_WINDS"},"data":[0,0,0,0,0,0,0,0,0,0,0,0,0,0,0,0,0,0,0,0,0,0,0,0,0,0,0,0,0,0,0,0,0,0,0,0,0,0,0,0,0,0,0,0,0,0,0,0,0,0,0,0,0,0,0,0,0,0,-0.6267,-0.6267,0,-0.6269,-0.6269,-0.6269,-0.6204,-0.6202,-0.6201,-0.6199,-0.6209,-0.621,-0.6212,0,0,0,0,0,0,0,0,0,0,0,0,0,-0.6212,-0.6214,-0.6267,-0.6267,-0.6267,-0.6269,-0.6269,-0.6269,-0.6204,-0.6202,-0.62,-0.6198,-0.6208,-0.621,-0.6212,0,0,0,0,0,0,0,0,0,0,0,0,0,-0.6228,-0.6214,-0.6267,-0.6235,-0.6232,-0.6269,-0.6269,-0.6269,-0.6205,-0.6202,-0.62,-0.6197,-0.6207,-0.621,-0.6213,-0.6283,0,0,-0.6221,-0.6223,0,0,0,0,0,0,0,0,-0.6227,-0.623,-0.624,-0.6237,-0.6234,-0.6233,-0.6253,-0.6274,-0.6206,-0.6215,-0.6199,-0.6196,-0.622,-0.6221,-0.6228,-0.6284,-0.6284,-0.6222,-0.6223,-0.6225,-0.6225,0,0,0,0,0,0,0,-0.6226,-0.6229,-0.6268,-0.624,-0.6236,-0.6222,-0.6221,-0.6257,-0.6233,-0.6214,-0.621,-0.621,-0.6218,-0.6225,-0.6227,-0.6284,-0.6222,-0.6224,-0.6226,-0.6227,-0.6398,-0.6401,0,0,0,0,0,0,-0.6228,-0.6229,-0.6268,-0.6268,-0.6224,-0.6225,-0.6224,-0.6237,-0.6232,-0.6229,-0.6213,-0.6207,-0.6221,-0.6224,-0.6227,-0.631,-0.6225,-0.6227,-0.6229,-0.6395,-0.6399,-0.6402,0,0,0,0,0,0,-0.6228,-0.6233,-0.6268,-0.6247,-0.6251,-0.6229,-0.6243,-0.6238,-0.6245,-0.623,-0.6226,-0.6224,-0.6219,-0.6223,-0.6269,-0.6309,-0.6229,-0.6231,-0.6392,-0.6396,-0.64,-0.6475,0,0,0,0,0,0,-0.6226,-0.6233,-0.6258,-0.6248,-0.6252,-0.6309,-0.6246,-0.624,-0.625,-0.6243,-0.6241,-0.6238,-0.6218,-0.6265,-0.6272,-0.6312,-0.6233,-0.6388,-0.6394,-0.6399,-0.6469,-0.6482,-0.6492,0,0,0,0,0,-0.6224,-0.6281,-0.626,-0.6265,-0.6283,-0.6311,-0.6313,-0.6287,-0.6253,-0.6279,-0.6269,-0.6238,-0.6303,-0.6271,-0.6278,-0.6319,-0.6386,-0.6392,-0.6398,-0.6464,-0.6479,-0.6492,0,0,0,0,0,0,-0.63,-0.6279,-0.6256,-0.631,-0.6312,-0.63,-0.6332,-0.6304,-0.6318,-0.6311,-0.628,-0.628,-0.6331,-0.6329,-0.6293,-0.6386,-0.6339,-0.6347,-0.6386,-0.6401,-0.6412,-0.6413,-0.6236,0,0,0,0,0,-0.6322,-0.6344,-0.6326,-0.6376,-0.6378,-0.6355,-0.6366,-0.6345,-0.6347,-0.6349,-0.6342,-0.6348,-0.6369,-0.6384,-0.6403,-0.6468,-0.6467,-0.6499,-0.6511,-0.652,-0.6529,-0.6563,-0.6577,-0.6423,-0.6422,-0.6422,0,0,-0.6369,-0.6361,-0.6378,-0.6391,-0.639,-0.6416,-0.6356,-0.6386,-0.6405,-0.6354,-0.6397,-0.6392,-0.6395,-0.6451,-0.6475,-0.6451,-0.6571,-0.6528,-0.6536,-0.6539,-0.6571,-0.6586,-0.6599,-0.6427,-0.6426,-0.6425,0,0,-0.6469,-0.6464,-0.6505,-0.6505,-0.6503,-0.6487,-0.6497,-0.6488,-0.6482,-0.6523,-0.6485,-0.6508,-0.6546,-0.655,-0.6557,-0.6656,-0.6628,-0.6663,-0.6724,-0.6758,-0.677,-0.6781,-0.6817,-0.683,-0.667,-0.6671,-0.6671,0,-0.653,-0.6564,-0.6531,-0.6562,-0.657,-0.6521,-0.6563,-0.6565,-0.6571,-0.6578,-0.655,-0.6595,-0.6594,-0.665,-0.6673,-0.668,-0.6692,-0.6664,-0.677,-0.6781,-0.679,-0.6825,-0.6838,-0.6675,-0.6675,-0.6674,-0.6674,0,-0.6639,-0.6664,-0.6697,-0.6701,-0.6712,-0.6749,-0.6722,-0.6738,-0.6715,-0.6702,-0.6745,-0.6741,-0.6759,-0.677,-0.6749,-0.6822,-0.6807,-0.6775,-0.6727,-0.681,-0.6842,-0.6855,-0.6681,-0.668,-0.6678,-0.6677,0,0,-0.679,-0.6772,-0.6785,-0.6786,-0.6779,-0.6799,-0.6833,-0.6847,-0.6861,-0.6866,-0.6896,-0.6927,-0.6897,-0.6905,-0.6884,-0.6913,-0.6992,-0.6877,-0.6877,-0.69,-0.7074,-0.71,-0.7115,-0.6972,-0.6974,-0.6976,-0.7074,0,-0.6888,-0.6944,-0.6914,-0.6975,-0.6998,-0.695,-0.6981,-0.6981,-0.6969,-0.6988,-0.6976,-0.6999,-0.6957,-0.6961,-0.6987,-0.6977,-0.7027,-0.6969,-0.7002,-0.7003,-0.7005,-0.7132,-0.716,-0.7252,-0.7086,-0.7088,-0.709,0,-0.701,-0.7018,-0.7081,-0.7068,-0.7077,-0.7104,-0.7114,-0.7132,-0.7131,-0.7121,-0.7128,-0.71,-0.7135,-0.7084,-0.7132,-0.7094,-0.7105,-0.7101,-0.7104,-0.7109,-0.7054,-0.7142,-0.7281,-0.7296,-0.7109,-0.7107,-0.7106,0,-0.7116,-0.7141,-0.7182,-0.7184,-0.717,-0.7191,-0.7187,-0.7183,-0.7193,-0.7202,-0.7208,-0.7222,-0.723,-0.7242,-0.7219,-0.7184,-0.7271,-0.7218,-0.7265,-0.7266,-0.7288,-0.7287,-0.7433,-0.7291,-0.7291,-0.7291,-0.729,0,-0.723,-0.7271,-0.7229,-0.7255,-0.7299,-0.7263,-0.7309,-0.73,-0.7296,-0.732,-0.728,-0.7304,-0.727,-0.7291,-0.7273,-0.7316,-0.732,-0.7313,-0.7309,-0.7318,-0.732,-0.7327,-0.7321,-0.7294,-0.7294,-0.7293,-0.7292,0,-0.7357,-0.733,-0.7371,-0.7354,-0.735,-0.7384,-0.737,-0.7393,-0.7377,-0.7408,-0.7413,-0.7389,-0.7412,-0.7388,-0.741,-0.7397,-0.7456,-0.7441,-0.7456,-0.7452,-0.7501,-0.7497,-0.7659,-0.7679,-0.7522,-0.7524,-0.7525,0,-0.7433,-0.7463,-0.7447,-0.7458,-0.7456,-0.7476,-0.7484,-0.745,-0.7462,-0.7461,-0.7486,-0.7503,-0.7516,-0.7554,-0.754,-0.7556,-0.7543,-0.7598,-0.7545,-0.7554,-0.7546,-0.7545,-0.7548,-0.761,-0.7612,-0.7613,-0.7615,0,-0.7571,-0.7555,-0.7568,-0.7577,-0.7588,-0.7593,-0.7596,-0.7609,-0.7573,-0.7588,-0.7608,-0.7618,-0.7638,-0.7657,-0.7668,-0.7666,-0.7636,-0.763,-0.7642,-0.7654,-0.7662,-0.766,-0.7487,-0.7628,-0.7627,-0.7626,-0.7625,-0.7624,-0.7676,-0.77,-0.7692,-0.7708,-0.7705,-0.7708,-0.7729,-0.7714,-0.773,-0.7742,-0.7721,-0.7747,-0.7745,-0.7756,-0.7757,-0.7778,-0.7755,-0.7772,-0.7776,-0.7782,-0.779,-0.7656,-0.778,-0.7779,-0.7779,-0.7778,-0.7778,0,-0.7813,-0.7804,-0.7819,-0.7823,-0.7835,-0.7801,-0.7802,-0.7815,-0.7838,-0.7837,-0.7849,-0.7873,-0.789,-0.7876,-0.7891,-0.7911,-0.7897,-0.7916,-0.7916,-0.7916,-0.7809,-0.7798,-0.7927,-0.7927,-0.7927,-0.7927,-0.7927,-0.7927,-0.7886,-0.7925,-0.7908,-0.7946,-0.7937,-0.7961,-0.7964,-0.7967,-0.7965,-0.7993,-0.8006,-0.7995,-0.7989,-0.8003,-0.8018,-0.8013,-0.8022,-0.8046,-0.8037,-0.7938,-0.7924,-0.791,-0.7899,-0.8048,-0.8048,-0.8143,-0.8144,-0.8145]},{"header":{"parameterUnit":"m.s-1","parameterCategory":1,"la1":30.2991,"la2":30.254,"lo1":-89.0895,"lo2":-89.0444,"dy":0.0017,"dx":0.0017,"nx":28,"ny":28,"refTime":"2025-04-12T09:00:00:Z","depth":0,"parameterNumber":3,"parameterNumberName":"V-component_of_WINDS"},"data":[0,0,0,0,0,0,0,0,0,0,0,0,0,0,0,0,0,0,0,0,0,0,0,0,0,0,0,0,0,0,0,0,0,0,0,0,0,0,0,0,0,0,0,0,0,0,0,0,0,0,0,0,0,0,0,0,0,0,-6.4962,-6.4963,0,-6.5066,-6.5067,-6.5068,-6.4918,-6.4913,-6.4907,-6.4902,-6.5006,-6.5014,-6.5021,0,0,0,0,0,0,0,0,0,0,0,0,0,-6.4631,-6.4638,-6.4962,-6.4963,-6.4964,-6.5065,-6.5067,-6.5068,-6.4919,-6.4912,-6.4906,-6.49,-6.5004,-6.5013,-6.5022,0,0,0,0,0,0,0,0,0,0,0,0,0,-6.4759,-6.464,-6.4961,-6.4902,-6.4898,-6.5065,-6.5067,-6.5069,-6.492,-6.4912,-6.4904,-6.4897,-6.5001,-6.5012,-6.5023,-6.5253,0,0,-6.5058,-6.5063,0,0,0,0,0,0,0,0,-6.4752,-6.4771,-6.4909,-6.4906,-6.4902,-6.4971,-6.4988,-6.513,-6.4922,-6.4912,-6.4902,-6.4893,-6.5001,-6.5012,-6.5048,-6.5258,-6.5262,-6.5059,-6.5066,-6.5071,-6.5075,0,0,0,0,0,0,0,-6.4743,-6.4766,-6.5002,-6.4912,-6.4907,-6.4869,-6.4879,-6.5014,-6.4999,-6.4912,-6.4901,-6.4916,-6.4997,-6.5038,-6.505,-6.5264,-6.5059,-6.5069,-6.5077,-6.5081,-6.5667,-6.5675,0,0,0,0,0,0,-6.4742,-6.4759,-6.4999,-6.5006,-6.4806,-6.4882,-6.4892,-6.4957,-6.4997,-6.4996,-6.4922,-6.4908,-6.5022,-6.5036,-6.5053,-6.5325,-6.5071,-6.5082,-6.5089,-6.5658,-6.5669,-6.5678,0,0,0,0,0,0,-6.4735,-6.4765,-6.4995,-6.488,-6.4906,-6.4896,-6.4969,-6.4963,-6.5003,-6.5005,-6.5001,-6.4967,-6.5016,-6.5037,-6.5205,-6.5327,-6.5087,-6.5098,-6.5648,-6.5662,-6.5673,-6.5872,0,0,0,0,0,0,-6.4726,-6.4763,-6.4851,-6.4883,-6.4913,-6.5147,-6.4977,-6.4971,-6.5024,-6.5007,-6.5046,-6.5045,-6.5012,-6.5188,-6.5216,-6.5338,-6.5107,-6.5637,-6.5654,-6.5669,-6.5854,-6.589,-6.592,0,0,0,0,0,-6.4715,-6.4902,-6.4856,-6.4886,-6.5023,-6.5154,-6.5171,-6.513,-6.5034,-6.5122,-6.5124,-6.5044,-6.5309,-6.5207,-6.5237,-6.5364,-6.5629,-6.5649,-6.5668,-6.584,-6.5883,-6.592,0,0,0,0,0,0,-6.4884,-6.4905,-6.4855,-6.5058,-6.5106,-6.5129,-6.5238,-6.5177,-6.5252,-6.5232,-6.5176,-6.5186,-6.5367,-6.5381,-6.5268,-6.5589,-6.5453,-6.5479,-6.5573,-6.5614,-6.5647,-6.564,-6.5116,0,0,0,0,0,-6.4945,-6.5051,-6.5063,-6.5241,-6.5268,-6.525,-6.5305,-6.5269,-6.5315,-6.5334,-6.5348,-6.5395,-6.5489,-6.5552,-6.5638,-6.5855,-6.5862,-6.5957,-6.599,-6.6018,-6.6042,-6.6158,-6.6201,-6.5742,-6.5742,-6.5741,0,0,-6.5072,-6.5097,-6.5167,-6.5276,-6.5308,-6.5419,-6.5267,-6.539,-6.5471,-6.5353,-6.5513,-6.5524,-6.5573,-6.5767,-6.5853,-6.5785,-6.617,-6.6042,-6.6064,-6.6073,-6.6182,-6.6226,-6.6264,-6.5755,-6.5753,-6.5751,0,0,-6.5361,-6.539,-6.5542,-6.5578,-6.5629,-6.5616,-6.5652,-6.5685,-6.5689,-6.5848,-6.5762,-6.5856,-6.6019,-6.6058,-6.6099,-6.6402,-6.6332,-6.6431,-6.6605,-6.6719,-6.6755,-6.6787,-6.6896,-6.6936,-6.6455,-6.6455,-6.6456,0,-6.5512,-6.5676,-6.5627,-6.5757,-6.5807,-6.5706,-6.5859,-6.5895,-6.5973,-6.601,-6.5932,-6.6135,-6.616,-6.6362,-6.6436,-6.6472,-6.6512,-6.6428,-6.6754,-6.6785,-6.6814,-6.6918,-6.6959,-6.6467,-6.6466,-6.6465,-6.6464,0,-6.5859,-6.5974,-6.609,-6.6169,-6.6232,-6.6373,-6.6345,-6.6414,-6.6373,-6.6367,-6.6531,-6.6558,-6.6649,-6.6693,-6.6653,-6.689,-6.6847,-6.6763,-6.6625,-6.6871,-6.6967,-6.7006,-6.6484,-6.648,-6.6477,-6.6474,0,0,-6.6258,-6.6308,-6.6352,-6.6387,-6.6436,-6.6523,-6.6658,-6.6748,-6.6809,-6.6865,-6.6978,-6.7117,-6.704,-6.7087,-6.705,-6.715,-6.739,-6.7053,-6.7054,-6.7116,-6.7653,-6.7718,-6.7764,-6.7342,-6.735,-6.7355,-6.7649,0,-6.6547,-6.6783,-6.6744,-6.6972,-6.7078,-6.6982,-6.71,-6.7143,-6.7141,-6.723,-6.7226,-6.7327,-6.7217,-6.7245,-6.7339,-6.7341,-6.7497,-6.7318,-6.7447,-6.7452,-6.744,-6.7814,-6.7883,-6.8159,-6.7687,-6.7693,-6.7697,0,-6.6916,-6.6987,-6.7227,-6.726,-6.7303,-6.741,-6.7489,-6.7574,-6.762,-6.7612,-6.7665,-6.7609,-6.7744,-6.7603,-6.7788,-6.7668,-6.7717,-6.7725,-6.7735,-6.7747,-6.7591,-6.7838,-6.8246,-6.8288,-6.7756,-6.7751,-6.7747,0,-6.7185,-6.734,-6.7504,-6.7536,-6.7579,-6.7656,-6.7677,-6.7715,-6.7772,-6.784,-6.7876,-6.7959,-6.8005,-6.807,-6.8038,-6.7938,-6.8229,-6.8085,-6.8226,-6.8227,-6.8293,-6.8289,-6.8716,-6.8322,-6.8321,-6.8321,-6.832,0,-6.7513,-6.7664,-6.7626,-6.7727,-6.7893,-6.7845,-6.801,-6.8019,-6.8054,-6.8155,-6.8076,-6.8172,-6.8123,-6.8215,-6.819,-6.8347,-6.8368,-6.8365,-6.8357,-6.8373,-6.8374,-6.8406,-6.8387,-6.8332,-6.8329,-6.8327,-6.8325,0,-6.7842,-6.7823,-6.7995,-6.8021,-6.8031,-6.8153,-6.8174,-6.8269,-6.826,-6.8389,-6.8416,-6.8403,-6.8507,-6.8481,-6.8594,-6.8577,-6.8777,-6.8743,-6.8762,-6.8755,-6.8897,-6.8885,-6.9362,-6.9422,-6.8987,-6.8992,-6.8995,0,-6.8054,-6.8168,-6.8206,-6.8269,-6.8296,-6.8397,-6.8455,-6.8411,-6.8474,-6.8535,-6.8622,-6.8719,-6.8795,-6.8966,-6.8966,-6.9053,-6.9022,-6.9183,-6.9034,-6.9048,-6.9026,-6.9021,-6.9033,-6.9213,-6.9218,-6.9222,-6.9225,0,-6.8432,-6.8417,-6.8503,-6.8587,-6.8658,-6.8722,-6.8778,-6.8833,-6.8793,-6.8868,-6.8974,-6.9033,-6.9149,-6.9247,-6.9326,-6.9346,-6.9281,-6.9272,-6.9309,-6.9329,-6.9336,-6.9335,-6.8845,-6.9262,-6.9258,-6.9255,-6.9253,-6.9252,-6.871,-6.8807,-6.885,-6.8949,-6.8987,-6.9041,-6.9131,-6.9134,-6.9223,-6.9315,-6.9283,-6.9405,-6.9447,-6.9547,-6.9577,-6.9671,-6.961,-6.9663,-6.9677,-6.9692,-6.9711,-6.9319,-6.9684,-6.9683,-6.9682,-6.9681,-6.9681,0,-6.9085,-6.9108,-6.92,-6.9281,-6.9359,-6.929,-6.9348,-6.9418,-6.9527,-6.9572,-6.9649,-6.9771,-6.9866,-6.9873,-6.9962,-7.0036,-7.0008,-7.0061,-7.0056,-7.0062,-6.9759,-6.9719,-7.0082,-7.0082,-7.0082,-7.0082,-7.0082,-7.0081,-6.929,-6.9452,-6.9442,-6.9621,-6.9641,-6.9762,-6.9801,-6.985,-6.9887,-7.0027,-7.0106,-7.011,-7.0141,-7.0231,-7.0314,-7.0314,-7.0351,-7.0416,-7.0405,-7.0123,-7.0083,-7.0045,-7.0007,-7.0424,-7.0424,-7.0699,-7.0702,-7.0704]}]]